Flag for Germany Weather past 2 weeks in Nuremberg, Bavaria, Germany

Now
57 °F

Passing clouds.


Feels Like: 56 °F
Forecast: 48 / 68 °F
Wind: 6 mph from Northwest

Location: Nuernberg

Current Time: May 29, 2015 at 1:16:52 AM

Latest Report: May 29, 2015 at 12:20 AM


Visibility: N/A

Pressure: 29.98 "Hg

Humidity: 63%

Dew point: 45 °F

Location of NurembergLocation

Historic Weather in Nuremberg — Graph

°F

Nuremberg temperature yesterday

Maximum temperature yesterday: 70 °F (at 4:50 PM)
Minimum temperature yesterday: 39 °F (at 1:20 AM)
Average temperature yesterday: 56 °F

Past Weeks' High & Low Weather Summary

 TemperatureHumidityPressure
High73 °F (May 18, 3:50 PM)100% (May 21, 2:20 AM)30.33 "Hg (May 21, 2:20 AM)
Low37 °F (May 22, 4:50 AM)27% (May 18, 6:20 PM)29.71 "Hg (May 18, 7:20 PM)
Average56 °F64%30.04 "Hg
* Reported May 13 11:20 PM — May 28 11:20 PM, Nuremberg, Weather by CustomWeather, © 2015

Note: Actual official high and low records may vary slightly from our data, if they occured in-between our weather recording intervals... More about our weather records

Advertising

Nuremberg weather history for previous 24 hours

 ConditionsComfort  
Time TempWeatherWind HumidityBarometerVisibility
11:20 PM
Thu, May 28
59 °FClear.2 mph55%29.95 "Hg10 mi
10:50 PM59 °FClear.1 mph55%29.95 "Hg10 mi
10:20 PM61 °FClear.1 mph52%29.95 "Hg10 mi
9:50 PM63 °FSunny.3 mph45%29.95 "Hg10 mi
9:20 PM63 °FPassing clouds.6 mph45%29.95 "HgN/A
8:50 PM64 °FSunny.7 mph46%29.95 "Hg10 mi
8:20 PM66 °FSunny.7 mph37%29.95 "Hg10 mi
7:50 PM66 °FSunny.12 mph37%29.95 "Hg10 mi
7:20 PM66 °FSunny.13 mph37%29.95 "Hg10 mi
6:50 PM66 °FSunny.13 mph35%29.95 "Hg10 mi
6:20 PM68 °FSunny.15 mph30%29.95 "Hg10 mi
5:50 PM68 °FPassing clouds.14 mph33%29.95 "HgN/A
5:20 PM70 °FPassing clouds.10 mph33%29.95 "HgN/A
4:50 PM70 °FPassing clouds.10 mph33%29.98 "HgN/A
4:20 PM68 °FPassing clouds.9 mph35%29.98 "HgN/A
3:50 PM68 °FPassing clouds.12 mph35%29.98 "HgN/A
3:20 PM66 °FSunny.7 mph35%30.01 "Hg10 mi
2:50 PM66 °FPassing clouds.13 mph37%30.01 "HgN/A
2:20 PM64 °FSunny.7 mph40%30.01 "Hg10 mi
1:50 PM63 °FPassing clouds.10 mph39%30.04 "HgN/A
1:20 PM63 °FSunny.7 mph45%30.04 "Hg10 mi
12:50 PM63 °FSunny.3 mph39%30.04 "Hg10 mi
12:20 PM61 °FBroken clouds.7 mph45%30.07 "HgN/A
11:50 AM59 °FPassing clouds.6 mph48%30.07 "HgN/A
11:20 AM59 °FPassing clouds.5 mph48%30.07 "HgN/A
10:50 AM57 °FPassing clouds.7 mph51%30.09 "HgN/A
10:20 AM57 °FSunny.3 mph51%30.09 "Hg10 mi
9:50 AM55 °FPartly sunny.3 mph55%30.09 "HgN/A
9:20 AM54 °FSunny.3 mph63%30.09 "Hg10 mi
8:50 AM52 °FPassing clouds.5 mph62%30.09 "HgN/A
8:20 AM52 °FSunny.3 mph62%30.12 "Hg10 mi
7:50 AM48 °FPartly sunny.5 mph71%30.09 "HgN/A
7:20 AM46 °FBroken clouds.5 mph76%30.12 "HgN/A
6:50 AM45 °FBroken clouds.5 mph81%30.09 "HgN/A
6:20 AM43 °FPartly sunny.3 mph87%30.12 "HgN/A
5:50 AM43 °FPassing clouds.3 mph87%30.12 "HgN/A
5:20 AM43 °FPassing clouds.5 mph87%30.12 "HgN/A
4:50 AM43 °FPassing clouds.5 mph81%30.12 "HgN/A
4:20 AM41 °FPassing clouds.3 mph87%30.12 "HgN/A
3:50 AM41 °FPassing clouds.5 mph87%30.12 "HgN/A
3:20 AM41 °FPassing clouds.3 mph87%30.12 "HgN/A
2:50 AM41 °FPassing clouds.5 mph93%30.12 "HgN/A
2:20 AM41 °FPassing clouds.5 mph87%30.15 "HgN/A
1:50 AM41 °FClear.3 mph87%30.15 "Hg10 mi
1:20 AM39 °FClear.5 mph93%30.15 "Hg10 mi
Weather by CustomWeather, © 2015

See weather overviewHow to use our weather pages